LIED

Details ICAO LIED (DCI)
Name DECIMOMANNU
Region Italy
Timezone Europe/Rome (UTC+2.0)
Plans Departing 11
Arriving 21
Stats Elevation 100 ft / 30 m (AMSL)
Location 39.353939° 8.972494°
Runways 2
Magnetic Variation 2.254° E
Sunrise 2017-08-22 04:44:48 UTC / 2017-08-22 06:44:48 Local
Sunset 2017-08-22 18:12:10 UTC / 2017-08-22 20:12:10 Local
Advertisement - Login to hide

Runways

ID Width Length Bearing (true) Bearing (mag) Surface Threshold Offset Overrun Length
17L 148 ft / 45 m 9,799 ft / 2,987 m 167.21° 164.96° Asphalt 494 ft / 151 m 0 ft / 0 m
17R 74 ft / 23 m 8,580 ft / 2,615 m 167.00° 164.75° Asphalt 0 ft / 0 m 0 ft / 0 m
35L 74 ft / 23 m 8,580 ft / 2,615 m 347.00° 344.75° Asphalt 0 ft / 0 m 0 ft / 0 m
35R 148 ft / 45 m 9,799 ft / 2,987 m 347.21° 344.96° Asphalt 495 ft / 151 m 0 ft / 0 m

Map

Weather


0- 5 10 15 20 25 30 35+ Temperature / ° C

Clouds and Precipitation
Forecast for 2017-08-22 18:00 UTC. Updated an hour ago

Ground ~20,000 ft ~40,000 ft Winds

METAR

LIED 221555Z 13011KT 9999 FEW035 31/15 Q1014 RMK FEW VIS MIN 9999 WIND THR35 /////KT WIND THR17 /////KT BLU

TAF

Not found

Frequencies

Tower 122.10 MHz TWR
Approach 118.40 MHz CAGLIARI APP
Approach 118.75 MHz CAGLIARI APP
Warning: Do not use this data for real-world aviation or navigation. No guarantee of current accuracy is given.